Location: Boitzum
(52.1496°N, 9.6943°E)
Time: 23:15:40
(UTC+00:00)

Cosmos 1743 Rocket - Pass Details

Date: 13 January 2026
Orbit: 597 x 626 km, 82.6° (Epoch: 9 February)

Event Time Altitude Azimuth Distance (km) Brightness Sun altitude
Rises 05:10:35 0° 174° (S) 2,900 7.2 -19.7°
Reaches altitude 10° 05:12:51 10° 169° (S) 1,997 6.4 -19.3°
Maximum altitude 05:17:07 50° 95° (E) 797 4.5 -18.7°
Drops below altitude 10° 05:21:25 10° 20° (NNE) 2,004 6.3 -18.1°
Sets 05:23:42 0° 15° (NNE) 2,911 7.0 -17.7°
